TimeCDT,TemperatureF,Dew PointF,Humidity,Sea Level PressureIn,VisibilityMPH,Wind Direction,Wind SpeedMPH,Gust SpeedMPH,PrecipitationIn,Events,Conditions,WindDirDegrees,DateUTC
12:53 AM,63.0,62.1,97,30.19,7.0,Calm,Calm,-,N/A,,Clear,0,2012-10-05 05:53:00
1:53 AM,62.1,62.1,100,30.18,6.0,Calm,Calm,-,N/A,,Clear,0,2012-10-05 06:53:00
2:53 AM,61.0,60.1,97,30.17,5.0,Calm,Calm,-,N/A,,Clear,0,2012-10-05 07:53:00
3:05 AM,60.8,60.8,100,30.17,2.5,Calm,Calm,-,N/A,,Clear,0,2012-10-05 08:05:00
3:14 AM,60.8,59.0,94,30.17,6.0,Calm,Calm,-,N/A,,Clear,0,2012-10-05 08:14:00
3:53 AM,60.1,60.1,100,30.17,5.0,Calm,Calm,-,N/A,,Clear,0,2012-10-05 08:53:00
4:18 AM,60.8,60.8,100,30.17,2.0,Calm,Calm,-,N/A,,Clear,0,2012-10-05 09:18:00
4:27 AM,59.0,59.0,100,30.17,5.0,Calm,Calm,-,N/A,,Clear,0,2012-10-05 09:27:00
4:53 AM,60.1,59.0,96,30.16,6.0,Calm,Calm,-,N/A,,Clear,0,2012-10-05 09:53:00
5:53 AM,57.9,57.9,100,30.16,6.0,Calm,Calm,-,N/A,,Clear,0,2012-10-05 10:53:00
6:53 AM,59.0,59.0,100,30.17,5.0,Calm,Calm,-,N/A,,Clear,0,2012-10-05 11:53:00
7:53 AM,63.0,62.1,97,30.17,5.0,Calm,Calm,-,N/A,,Scattered Clouds,0,2012-10-05 12:53:00
8:53 AM,66.9,64.0,90,30.17,10.0,SSW,5.8,-,N/A,,Mostly Cloudy,200,2012-10-05 13:53:00
9:53 AM,72.0,64.0,76,30.16,10.0,South,8.1,-,N/A,,Clear,190,2012-10-05 14:53:00
10:53 AM,77.0,64.0,64,30.13,10.0,South,11.5,-,N/A,,Clear,180,2012-10-05 15:53:00
11:53 AM,80.1,61.0,52,30.11,10.0,SSW,13.8,-,N/A,,Partly Cloudy,210,2012-10-05 16:53:00
12:53 PM,81.0,59.0,47,30.09,10.0,SW,6.9,-,N/A,,Clear,230,2012-10-05 17:53:00
1:53 PM,82.0,59.0,45,30.07,10.0,WNW,5.8,-,N/A,,Partly Cloudy,290,2012-10-05 18:53:00
2:53 PM,82.9,59.0,44,30.04,10.0,WSW,8.1,-,N/A,,Mostly Cloudy,250,2012-10-05 19:53:00
3:53 PM,82.0,57.9,44,30.01,10.0,West,6.9,-,N/A,,Clear,260,2012-10-05 20:53:00
4:53 PM,82.0,57.9,44,30.00,10.0,West,8.1,-,N/A,,Clear,260,2012-10-05 21:53:00
5:53 PM,80.1,60.1,50,29.99,10.0,WSW,3.5,-,N/A,,Clear,250,2012-10-05 22:53:00
6:53 PM,73.9,62.1,66,29.98,10.0,Calm,Calm,-,N/A,,Clear,0,2012-10-05 23:53:00
7:53 PM,69.1,64.0,84,29.98,10.0,SW,4.6,-,N/A,,Clear,220,2012-10-06 00:53:00
8:53 PM,68.0,64.0,87,30.01,10.0,Calm,Calm,-,N/A,,Clear,0,2012-10-06 01:53:00
9:53 PM,66.9,64.0,90,30.02,10.0,Calm,Calm,-,N/A,,Partly Cloudy,0,2012-10-06 02:53:00
10:53 PM,66.0,64.0,93,30.01,10.0,Calm,Calm,-,N/A,,Clear,0,2012-10-06 03:53:00
11:53 PM,66.0,64.9,96,30.00,10.0,Calm,Calm,-,N/A,,Overcast,0,2012-10-06 04:53:00